Location: North Evanston
(42.0634°N, 87.6976°W)
Time: 14:06:41
(UTC+00:00)

Injun/Solrad 3 - Pass Details

Date: 17 May 2026
Orbit: 867 x 989 km, 66.8° (Epoch: 7 June)

Event Time Altitude Azimuth Distance (km) Brightness Sun altitude
Rises 07:40:52 0° 312° (NW) 3,697 11.2 -23.2°
Reaches altitude 10° 07:44:36 10° 291° (WNW) 2,750 10.3 -22.9°
Enters shadow 07:46:34 14° 274° (W) 2,454 9.8 -22.7°
Maximum altitude 07:48:06 15° 258° (WSW) 2,376 - -22.5°
Drops below altitude 10° 07:51:35 10° 225° (SW) 2,737 - -22.2°
Sets 07:55:18 0° 204° (SSW) 3,670 - -21.8°
